Location: D�rnast
(49.6426°N, 11.9755°E)
Time: 20:41:51
(UTC+00:00)

Cosmos 1538 Rocket - Pass Details

Date: 24 January 2021
Orbit: 753 x 791 km, 74.0° (Epoch: 01 March)

Event Time Altitude Azimuth Distance (km) Brightness Sun altitude
Rises 16:25:52 0° 336° (NNW) 3,219 7.2 -5.4°
Reaches altitude 10° 16:28:14 10° 337° (NNW) 2,288 6.5 -5.8°
Maximum altitude 16:33:26 86° 65° (ENE) 762 4.0 -6.5°
Drops below altitude 10° 16:38:36 10° 157° (SSE) 2,276 6.4 -7.3°
Sets 16:40:58 0° 157° (SSE) 3,200 7.2 -7.7°
